Home   Weather   Port Vila   Past weeks
Flag for Vanuatu

Past Weather in Port Vila, Vanuatu — Yesterday and Last 2 Weeks

Now
77 °F

Partly sunny.


Feels Like: 79 °F
Forecast: 76 / 68 °F
Wind: 15 mph from East

Location: Bauerfield Efate

Current Time: Jul 17, 2019 at 11:41:19 am

Latest Report: Jul 17, 2019 at 11:00 am


Visibility: N/A

Pressure: 29.95 "Hg

Humidity: 57%

Dew Point: 61 °F

Location of Port VilaLocation

Past Weather in Port Vila — Graph

°F

Port Vila Temperature Yesterday

Maximum temperature yesterday: 79 °F (at 10:00 am)
Minimum temperature yesterday: 63 °F (at 6:00 am)
Average temperature yesterday: 72 °F

High & Low Weather Summary for the Past Weeks

 TemperatureHumidityPressure
High82 °F (Jul 6, 1:00 pm)100% (Jul 2, 8:00 pm)30.04 "Hg (Jul 2, 8:00 pm)
Low61 °F (Jul 10, 6:00 am)54% (Jul 10, 10:00 am)29.83 "Hg (Jul 14, 2:00 pm)
Average73 °F85%29.95 "Hg
* Reported Jul 2 10:00 am — Jul 17 10:00 am, Port Vila. Weather by CustomWeather, © 2019

Note: Actual official high and low records may vary slightly from our data, if they occured in-between our weather recording intervals... More about our weather records

Advertising

Port Vila Weather History for the Previous 24 Hours

Scroll right to see more
 ConditionsComfort  
Time TempWeatherWind HumidityBarometerVisibility
10:00 am
Wed, Jul 17
73 °FBroken clouds.8 mph65%29.98 "HgN/A
9:00 am72 °FPartly sunny.2 mph83%29.98 "HgN/A
8:00 am70 °FPartly sunny.2 mph88%29.95 "HgN/A
7:00 am66 °FPartly sunny.3 mph94%29.92 "HgN/A
6:00 am66 °FPartly cloudy.3 mph94%29.92 "HgN/A
5:00 am68 °FPartly cloudy.5 mph94%29.89 "HgN/A
4:00 am68 °FPartly cloudy.3 mph94%29.89 "HgN/A
3:00 am68 °FPartly cloudy.3 mph94%29.83 "HgN/A
2:00 am68 °FPartly cloudy.5 mph94%29.89 "HgN/A
1:00 am70 °FPartly cloudy.5 mph94%29.92 "HgN/A
12:00 am70 °FPartly cloudy.3 mph94%29.92 "HgN/A
11:00 pm
Tue, Jul 16
68 °FPartly cloudy.2 mph94%29.92 "HgN/A
10:00 pm68 °FPassing clouds.5 mph94%29.95 "HgN/A
9:00 pm68 °FPassing clouds.3 mph94%29.92 "HgN/A
8:00 pm70 °FPassing clouds.5 mph83%29.92 "HgN/A
7:00 pm70 °FPassing clouds.3 mph94%29.89 "HgN/A
6:00 pm72 °FPassing clouds.3 mph83%29.89 "HgN/A
5:00 pm75 °FScattered clouds.7 mph69%29.86 "HgN/A
4:00 pm77 °FScattered clouds.9 mph65%29.83 "HgN/A
3:00 pm77 °FScattered clouds.10 mph69%29.83 "HgN/A
2:00 pm77 °FScattered clouds.9 mph65%29.83 "HgN/A
1:00 pm79 °FScattered clouds.8 mph65%29.86 "HgN/A
12:00 pm77 °FScattered clouds.6 mph69%29.86 "HgN/A
11:00 am77 °FScattered clouds.6 mph74%29.89 "HgN/A
Weather by CustomWeather, © 2019

See weather overview

LIVE PARTIAL LUNAR ECLIPSE – Watch the eclipse as it happens